Home   Weather   Vaasa   Past weeks

Flag for Finland Past Weather in Vaasa, Finland — Yesterday and Last 2 Weeks

Now
34 °F

Passing clouds.


Feels Like: 28 °F
Forecast: 26 / 41 °F
Wind: 7 mph from South

Location: Vaasa Airport

Current Time: Apr 24, 2017 at 12:59:18 am

Latest Report: Apr 24, 2017 at 12:20 am


Visibility: N/A

Pressure: 29.59 "Hg

Humidity: 81%

Dew Point: 28 °F

Location of VaasaLocation

Past Weather in Vaasa — Graph

°F

Vaasa Temperature Yesterday

Maximum temperature yesterday: 43 °F (at 4:50 pm)
Minimum temperature yesterday: 27 °F (at 5:50 am)
Average temperature yesterday: 36 °F

High & Low Weather Summary for the Past Weeks

 TemperatureHumidityPressure
High48 °F (Apr 9, 1:50 pm)100% (Apr 9, 6:50 am)30.45 "Hg (Apr 9, 6:50 am)
Low16 °F (Apr 16, 6:50 am)34% (Apr 16, 11:50 am)29.06 "Hg (Apr 10, 5:50 pm)
Average32 °F75%29.75 "Hg
* Reported Apr 8 11:20 pm — Apr 23 11:20 pm, Vaasa, Weather by CustomWeather, © 2017

Note: Actual official high and low records may vary slightly from our data, if they occured in-between our weather recording intervals... More about our weather records

Advertising

Vaasa Weather History for the Previous 24 Hours

Scroll right to see more
 ConditionsComfort  
Time TempWeatherWind HumidityBarometerVisibility
11:20 pm
Sun, Apr 23
36 °FOvercast.9 mph75%29.59 "HgN/A
10:50 pm36 °FPassing clouds.9 mph70%29.59 "HgN/A
10:20 pm36 °FPartly cloudy.8 mph65%29.59 "HgN/A
9:50 pm36 °FPartly cloudy.8 mph70%29.59 "HgN/A
9:20 pm37 °FPartly sunny.7 mph60%29.59 "HgN/A
8:50 pm37 °FPartly sunny.7 mph65%29.59 "HgN/A
8:20 pm39 °FPartly sunny.5 mph56%29.59 "HgN/A
7:50 pm39 °FPartly sunny.7 mph56%29.59 "HgN/A
7:20 pm39 °FScattered clouds.7 mph56%29.59 "HgN/A
6:50 pm39 °FPassing clouds.9 mph56%29.59 "HgN/A
6:20 pm41 °FPartly sunny.12 mph49%29.59 "HgN/A
5:50 pm41 °FScattered clouds.12 mph53%29.56 "HgN/A
5:20 pm43 °FPassing clouds.12 mph49%29.56 "HgN/A
4:50 pm43 °FPassing clouds.10 mph53%29.56 "HgN/A
4:20 pm41 °FSunny.12 mph53%29.56 "Hg10 mi
3:50 pm41 °FSunny.12 mph53%29.56 "Hg10 mi
3:20 pm41 °FSunny.13 mph53%29.56 "Hg10 mi
2:50 pm41 °FPassing clouds.10 mph53%29.56 "HgN/A
2:20 pm41 °FSunny.12 mph53%29.56 "Hg10 mi
1:50 pm41 °FSunny.10 mph53%29.56 "Hg10 mi
1:20 pm39 °FPassing clouds.9 mph56%29.56 "HgN/A
12:50 pm39 °FPartly sunny.8 mph56%29.56 "HgN/A
12:20 pm39 °FPassing clouds.10 mph56%29.56 "HgN/A
11:50 am39 °FScattered clouds.8 mph56%29.53 "HgN/A
11:20 am37 °FPartly sunny.7 mph60%29.53 "HgN/A
10:50 am37 °FBroken clouds.6 mph60%29.53 "HgN/A
10:20 am37 °FBroken clouds.7 mph60%29.53 "HgN/A
9:50 am36 °FScattered clouds.6 mph65%29.53 "HgN/A
9:20 am36 °FBroken clouds.6 mph70%29.53 "HgN/A
8:50 am34 °FLight snow. Broken clouds.8 mph75%29.53 "HgN/A
8:20 am36 °FMostly cloudy.8 mph65%29.53 "HgN/A
7:50 am32 °FPartly sunny.2 mph80%29.50 "HgN/A
7:20 am30 °FScattered clouds.1 mph80%29.50 "HgN/A
6:50 am30 °FSunny.3 mph80%29.50 "Hg10 mi
6:20 am28 °FSunny.3 mph86%29.50 "Hg10 mi
5:50 am27 °FSunny.2 mph86%29.50 "Hg10 mi
5:20 am32 °FClear.5 mph69%29.50 "Hg10 mi
4:50 am32 °FClear.3 mph69%29.50 "Hg10 mi
4:20 am32 °FClear.6 mph64%29.50 "Hg10 mi
3:50 am32 °FClear.3 mph69%29.50 "Hg10 mi
3:20 am32 °FClear.3 mph69%29.50 "Hg10 mi
2:50 am32 °FClear.6 mph64%29.50 "Hg10 mi
2:20 am34 °FClear.9 mph60%29.50 "Hg10 mi
1:50 am34 °FPassing clouds.5 mph70%29.50 "HgN/A
1:20 am32 °FClear.5 mph87%29.50 "Hg10 mi
12:50 am34 °FPassing clouds.5 mph81%29.50 "HgN/A
12:20 am34 °FPassing clouds.5 mph75%29.50 "HgN/A
Weather by CustomWeather, © 2017

See weather overviewHow to use our weather pages